<?xml version='1.0' encoding='UTF-8'?>
<gpx xmlns="http://www.topografix.com/GPX/1/1" creator="www.balnam.be" version="1.1" xmlns:xsi="http://www.w3.org/2001/XMLSchema-instance" xsi:schemaLocation="http://www.topografix.com/GPX/1/1 http://www.topografix.com/GPX/1/1/gpx.xsd">
<trk>
<name>lhatr10</name>
<cmt>v</cmt>
<desc>Trognée Chemin n°10 Rue de la Maladrie</desc>
<link href="https://chemins.be/trognee/chemin/10"/><trkseg>
<trkpt lat="50.691690" lon="5.121041"><time>2026-05-02T21:24:46Z</time></trkpt>
<trkpt lat="50.693036" lon="5.121981"><time>2026-05-02T21:34:46Z</time></trkpt>
<trkpt lat="50.693899" lon="5.121985"><time>2026-05-02T21:44:46Z</time></trkpt>
<trkpt lat="50.694617" lon="5.120465"><time>2026-05-02T21:54:46Z</time></trkpt>
<trkpt lat="50.695336" lon="5.119721"><time>2026-05-02T22:04:46Z</time></trkpt>
</trkseg>
</trk>
<trk>
<name>lhatr11</name>
<cmt>v</cmt>
<desc>Trognée Sentier n°11 </desc>
<link href="https://chemins.be/trognee/sentier/11"/><trkseg>
<trkpt lat="50.688716" lon="5.133830"><time>2026-05-02T21:24:46Z</time></trkpt>
<trkpt lat="50.690206" lon="5.133383"><time>2026-05-02T21:34:46Z</time></trkpt>
</trkseg>
</trk>
<trk>
<name>lhatr14</name>
<cmt>q</cmt>
<desc>Trognée Sentier n°14 </desc>
<link href="https://chemins.be/trognee/sentier/14"/><trkseg>
<trkpt lat="50.687120" lon="5.124017"><time>2026-05-02T21:24:46Z</time></trkpt>
<trkpt lat="50.686672" lon="5.123755"><time>2026-05-02T21:34:46Z</time></trkpt>
<trkpt lat="50.686710" lon="5.123473"><time>2026-05-02T21:44:46Z</time></trkpt>
<trkpt lat="50.686397" lon="5.123270"><time>2026-05-02T21:54:46Z</time></trkpt>
</trkseg>
</trk>
<trk>
<name>lhatr15</name>
<cmt>v</cmt>
<desc>Trognée Sentier n°15 </desc>
<link href="https://chemins.be/trognee/sentier/15"/><trkseg>
<trkpt lat="50.687489" lon="5.126726"><time>2026-05-02T21:24:46Z</time></trkpt>
<trkpt lat="50.687570" lon="5.126685"><time>2026-05-02T21:34:46Z</time></trkpt>
<trkpt lat="50.687580" lon="5.126572"><time>2026-05-02T21:44:46Z</time></trkpt>
<trkpt lat="50.687733" lon="5.126546"><time>2026-05-02T21:54:46Z</time></trkpt>
<trkpt lat="50.687885" lon="5.125218"><time>2026-05-02T22:04:46Z</time></trkpt>
</trkseg></trk>
<trk>
<name>lhatr15</name>
<cmt>q</cmt>
<desc>Trognée Sentier n°15 </desc>
<link href="https://chemins.be/trognee/sentier/15"/><trkseg>
<trkpt lat="50.687885" lon="5.125218"><time>2026-05-02T22:04:46Z</time></trkpt>
<trkpt lat="50.688192" lon="5.123667"><time>2026-05-02T22:14:46Z</time></trkpt>
<trkpt lat="50.688025" lon="5.123041"><time>2026-05-02T22:24:46Z</time></trkpt>
</trkseg>
</trk>
<trk>
<name>lhatr16</name>
<cmt>q</cmt>
<desc>Trognée Sentier n°16 </desc>
<link href="https://chemins.be/trognee/sentier/16"/><trkseg>
<trkpt lat="50.686176" lon="5.124073"><time>2026-05-02T21:24:46Z</time></trkpt>
<trkpt lat="50.686397" lon="5.123242"><time>2026-05-02T21:34:46Z</time></trkpt>
<trkpt lat="50.686555" lon="5.122452"><time>2026-05-02T21:44:46Z</time></trkpt>
</trkseg>
</trk>
<trk>
<name>lhatr17</name>
<cmt>q</cmt>
<desc>Trognée Sentier n°17 </desc>
<link href="https://chemins.be/trognee/sentier/17"/><trkseg>
<trkpt lat="50.686878" lon="5.122483"><time>2026-05-02T21:24:46Z</time></trkpt>
<trkpt lat="50.687210" lon="5.120105"><time>2026-05-02T21:34:46Z</time></trkpt>
</trkseg>
</trk>
<trk>
<name>lhatr18</name>
<cmt>q</cmt>
<desc>Trognée Sentier n°18 </desc>
<link href="https://chemins.be/trognee/sentier/18"/><trkseg>
<trkpt lat="50.688126" lon="5.120110"><time>2026-05-02T21:24:46Z</time></trkpt>
<trkpt lat="50.687185" lon="5.120135"><time>2026-05-02T21:34:46Z</time></trkpt>
<trkpt lat="50.686897" lon="5.119878"><time>2026-05-02T21:44:46Z</time></trkpt>
<trkpt lat="50.684967" lon="5.119749"><time>2026-05-02T21:54:46Z</time></trkpt>
<trkpt lat="50.683090" lon="5.118951"><time>2026-05-02T22:04:46Z</time></trkpt>
<trkpt lat="50.682335" lon="5.117955"><time>2026-05-02T22:14:46Z</time></trkpt>
</trkseg>
</trk>
<trk>
<name>lhatr19</name>
<cmt>q</cmt>
<desc>Trognée Sentier n°19 </desc>
<link href="https://chemins.be/trognee/sentier/19"/><trkseg>
<trkpt lat="50.688110" lon="5.120161"><time>2026-05-02T21:24:46Z</time></trkpt>
<trkpt lat="50.685233" lon="5.115346"><time>2026-05-02T21:34:46Z</time></trkpt>
<trkpt lat="50.684662" lon="5.114642"><time>2026-05-02T21:44:46Z</time></trkpt>
<trkpt lat="50.684287" lon="5.114728"><time>2026-05-02T21:54:46Z</time></trkpt>
</trkseg>
</trk>
<trk>
<name>lhatr20</name>
<cmt>q</cmt>
<desc>Trognée Sentier n°20 </desc>
<link href="https://chemins.be/trognee/sentier/20"/><trkseg>
<trkpt lat="50.685273" lon="5.123382"><time>2026-05-02T21:24:46Z</time></trkpt>
<trkpt lat="50.685494" lon="5.121785"><time>2026-05-02T21:34:46Z</time></trkpt>
</trkseg>
</trk>
<trk>
<name>lhatr21</name>
<cmt>q</cmt>
<desc>Trognée Sentier n°21 </desc>
<link href="https://chemins.be/trognee/sentier/21"/><trkseg>
<trkpt lat="50.685578" lon="5.123787"><time>2026-05-02T21:24:46Z</time></trkpt>
<trkpt lat="50.685247" lon="5.124852"><time>2026-05-02T21:34:46Z</time></trkpt>
<trkpt lat="50.682152" lon="5.127049"><time>2026-05-02T21:44:46Z</time></trkpt>
</trkseg>
</trk>
<trk>
<name>lhatr22</name>
<cmt>q</cmt>
<desc>Trognée Sentier n°22 </desc>
<link href="https://chemins.be/trognee/sentier/22"/><trkseg>
<trkpt lat="50.686220" lon="5.126517"><time>2026-05-02T21:24:46Z</time></trkpt>
<trkpt lat="50.685230" lon="5.124826"><time>2026-05-02T21:34:46Z</time></trkpt>
<trkpt lat="50.684257" lon="5.122852"><time>2026-05-02T21:44:46Z</time></trkpt>
<trkpt lat="50.684230" lon="5.122551"><time>2026-05-02T21:54:46Z</time></trkpt>
</trkseg>
</trk>
<trk>
<name>lhatr23</name>
<cmt>v</cmt>
<desc>Trognée Chemin n°23 </desc>
<link href="https://chemins.be/trognee/chemin/23"/><trkseg>
<trkpt lat="50.682501" lon="5.121208"><time>2026-05-02T21:24:46Z</time></trkpt>
<trkpt lat="50.682700" lon="5.120393"><time>2026-05-02T21:34:46Z</time></trkpt>
<trkpt lat="50.682460" lon="5.118436"><time>2026-05-02T21:44:46Z</time></trkpt>
<trkpt lat="50.682303" lon="5.117844"><time>2026-05-02T21:54:46Z</time></trkpt>
<trkpt lat="50.681459" lon="5.116590"><time>2026-05-02T22:04:46Z</time></trkpt>
</trkseg>
</trk>
<trk>
<name>lhatr24</name>
<cmt>v</cmt>
<desc>Trognée Sentier n°24 </desc>
<link href="https://chemins.be/trognee/sentier/24"/><trkseg>
<trkpt lat="50.685391" lon="5.128160"><time>2026-05-02T21:24:46Z</time></trkpt>
<trkpt lat="50.682019" lon="5.127096"><time>2026-05-02T21:34:46Z</time></trkpt>
<trkpt lat="50.679928" lon="5.128637"><time>2026-05-02T21:44:46Z</time></trkpt>
<trkpt lat="50.678324" lon="5.128525"><time>2026-05-02T21:54:46Z</time></trkpt>
<trkpt lat="50.676409" lon="5.127802"><time>2026-05-02T22:04:46Z</time></trkpt>
</trkseg>
</trk>
<trk>
<name>lhatr26</name>
<cmt>q</cmt>
<desc>Trognée Sentier n°26 </desc>
<link href="https://chemins.be/trognee/sentier/26"/><trkseg>
<trkpt lat="50.687308" lon="5.139331"><time>2026-05-02T21:24:46Z</time></trkpt>
<trkpt lat="50.688368" lon="5.139100"><time>2026-05-02T21:34:46Z</time></trkpt>
<trkpt lat="50.689064" lon="5.139228"><time>2026-05-02T21:44:46Z</time></trkpt>
</trkseg>
</trk>
<trk>
<name>lhatr27</name>
<cmt>q</cmt>
<desc>Trognée Chemin n°27 </desc>
<link href="https://chemins.be/trognee/chemin/27"/><trkseg>
<trkpt lat="50.688205" lon="5.137486"><time>2026-05-02T21:24:46Z</time></trkpt>
<trkpt lat="50.688439" lon="5.139675"><time>2026-05-02T21:34:46Z</time></trkpt>
<trkpt lat="50.689526" lon="5.143683"><time>2026-05-02T21:44:46Z</time></trkpt>
</trkseg>
</trk>
<trk>
<name>lhatr28</name>
<cmt>q</cmt>
<desc>Trognée Sentier n°28 </desc>
<link href="https://chemins.be/trognee/sentier/28"/><trkseg>
<trkpt lat="50.688945" lon="5.133817"><time>2026-05-02T21:24:46Z</time></trkpt>
<trkpt lat="50.690022" lon="5.135276"><time>2026-05-02T21:34:46Z</time></trkpt>
<trkpt lat="50.690794" lon="5.136838"><time>2026-05-02T21:44:46Z</time></trkpt>
</trkseg>
</trk>
<trk>
<name>lhatr29</name>
<cmt>r</cmt>
<desc>Trognée Sentier n°29 </desc>
<link href="https://chemins.be/trognee/sentier/29"/><trkseg>
<trkpt lat="50.685165" lon="5.128931"><time>2026-05-02T21:24:46Z</time></trkpt>
<trkpt lat="50.685928" lon="5.129618"><time>2026-05-02T21:34:46Z</time></trkpt>
</trkseg></trk>
<trk>
<name>lhatr29</name>
<cmt>q</cmt>
<desc>Trognée Sentier n°29 </desc>
<link href="https://chemins.be/trognee/sentier/29"/><trkseg>
<trkpt lat="50.685928" lon="5.129618"><time>2026-05-02T21:34:46Z</time></trkpt>
<trkpt lat="50.687901" lon="5.131396"><time>2026-05-02T21:44:46Z</time></trkpt>
<trkpt lat="50.688576" lon="5.132220"><time>2026-05-02T21:54:46Z</time></trkpt>
</trkseg>
</trk>
<trk>
<name>lhatr3</name>
<cmt>v</cmt>
<desc>Trognée Chemin n°3 Rue de Villereau</desc>
<link href="https://chemins.be/trognee/chemin/3"/><trkseg>
<trkpt lat="50.688042" lon="5.128911"><time>2026-05-02T21:24:46Z</time></trkpt>
<trkpt lat="50.688618" lon="5.131564"><time>2026-05-02T21:34:46Z</time></trkpt>
<trkpt lat="50.688707" lon="5.133823"><time>2026-05-02T21:44:46Z</time></trkpt>
<trkpt lat="50.688363" lon="5.135898"><time>2026-05-02T21:54:46Z</time></trkpt>
<trkpt lat="50.688162" lon="5.137610"><time>2026-05-02T22:04:46Z</time></trkpt>
<trkpt lat="50.685378" lon="5.142674"><time>2026-05-02T22:14:46Z</time></trkpt>
</trkseg></trk>
<trk>
<name>lhatr3</name>
<cmt>q</cmt>
<desc>Trognée Chemin n°3 Rue de Villereau</desc>
<link href="https://chemins.be/trognee/chemin/3"/><trkseg>
<trkpt lat="50.685378" lon="5.142674"><time>2026-05-02T22:14:46Z</time></trkpt>
<trkpt lat="50.682964" lon="5.144202"><time>2026-05-02T22:24:46Z</time></trkpt>
</trkseg>
</trk>
<trk>
<name>lhatr31</name>
<cmt>r</cmt>
<desc>Trognée Chemin n°31 Rue d'Abolens</desc>
<link href="https://chemins.be/trognee/chemin/31"/><trkseg>
<trkpt lat="50.676386" lon="5.127828"><time>2026-05-02T21:24:46Z</time></trkpt>
<trkpt lat="50.676451" lon="5.128703"><time>2026-05-02T21:34:46Z</time></trkpt>
<trkpt lat="50.676300" lon="5.130777"><time>2026-05-02T21:44:46Z</time></trkpt>
</trkseg>
</trk>
<trk>
<name>lhatr34</name>
<cmt>v</cmt>
<desc>Trognée Sentier n°34 </desc>
<link href="https://chemins.be/trognee/sentier/34"/><trkseg>
<trkpt lat="50.687623" lon="5.122946"><time>2026-05-02T21:24:46Z</time></trkpt>
<trkpt lat="50.688047" lon="5.123144"><time>2026-05-02T21:34:46Z</time></trkpt>
</trkseg>
</trk>
<trk>
<name>lhatr4</name>
<cmt>r</cmt>
<desc>Trognée Chemin n°4 Rue de la Maladrie</desc>
<link href="https://chemins.be/trognee/chemin/4"/><trkseg>
<trkpt lat="50.688256" lon="5.119777"><time>2026-05-02T21:24:46Z</time></trkpt>
<trkpt lat="50.689401" lon="5.120194"><time>2026-05-02T21:34:46Z</time></trkpt>
</trkseg></trk>
<trk>
<name>lhatr4</name>
<cmt>v</cmt>
<desc>Trognée Chemin n°4 Rue de la Maladrie</desc>
<link href="https://chemins.be/trognee/chemin/4"/><trkseg>
<trkpt lat="50.689401" lon="5.120194"><time>2026-05-02T21:34:46Z</time></trkpt>
<trkpt lat="50.691804" lon="5.121069"><time>2026-05-02T21:44:46Z</time></trkpt>
</trkseg>
</trk>
<trk>
<name>lhatr9</name>
<cmt>s</cmt>
<desc>Trognée Chemin n°9 Rue du Château d'Eau</desc>
<link href="https://chemins.be/trognee/chemin/9"/><trkseg>
<trkpt lat="50.684030" lon="5.134950"><time>2026-05-02T21:24:46Z</time></trkpt>
<trkpt lat="50.684824" lon="5.141936"><time>2026-05-02T21:34:46Z</time></trkpt>
</trkseg></trk>
<trk>
<name>lhatr9</name>
<cmt>r</cmt>
<desc>Trognée Chemin n°9 Rue du Château d'Eau</desc>
<link href="https://chemins.be/trognee/chemin/9"/><trkseg>
<trkpt lat="50.684824" lon="5.141936"><time>2026-05-02T21:34:46Z</time></trkpt>
<trkpt lat="50.685389" lon="5.142692"><time>2026-05-02T21:44:46Z</time></trkpt>
</trkseg></trk>
<trk>
<name>lhatr9</name>
<cmt>q</cmt>
<desc>Trognée Chemin n°9 Rue du Château d'Eau</desc>
<link href="https://chemins.be/trognee/chemin/9"/><trkseg>
<trkpt lat="50.685389" lon="5.142692"><time>2026-05-02T21:44:46Z</time></trkpt>
<trkpt lat="50.684813" lon="5.146108"><time>2026-05-02T21:54:46Z</time></trkpt>
</trkseg>
</trk>
<trk>
<name>lhatrLv573</name>
<cmt>s</cmt>
<desc>Trognée Chemin n°Lv573 </desc>
<link href="https://chemins.be/trognee/chemin/Lv573"/><trkseg>
<trkpt lat="50.681756" lon="5.116644"><time>2026-05-02T21:24:46Z</time></trkpt>
<trkpt lat="50.683649" lon="5.118871"><time>2026-05-02T21:34:46Z</time></trkpt>
<trkpt lat="50.687046" lon="5.119678"><time>2026-05-02T21:44:46Z</time></trkpt>
</trkseg></trk>
<trk>
<name>lhatrLv573</name>
<cmt>q</cmt>
<desc>Trognée Chemin n°Lv573 </desc>
<link href="https://chemins.be/trognee/chemin/Lv573"/><trkseg>
<trkpt lat="50.687046" lon="5.119678"><time>2026-05-02T21:44:46Z</time></trkpt>
<trkpt lat="50.688235" lon="5.119796"><time>2026-05-02T21:54:46Z</time></trkpt>
</trkseg></trk>
<trk>
<name>lhatrLv573</name>
<cmt>r</cmt>
<desc>Trognée Chemin n°Lv573 </desc>
<link href="https://chemins.be/trognee/chemin/Lv573"/><trkseg>
<trkpt lat="50.688235" lon="5.119796"><time>2026-05-02T21:54:46Z</time></trkpt>
<trkpt lat="50.689721" lon="5.120285"><time>2026-05-02T22:04:46Z</time></trkpt>
</trkseg></trk>
<trk>
<name>lhatrLv573</name>
<cmt>v</cmt>
<desc>Trognée Chemin n°Lv573 </desc>
<link href="https://chemins.be/trognee/chemin/Lv573"/><trkseg>
<trkpt lat="50.689721" lon="5.120285"><time>2026-05-02T22:04:46Z</time></trkpt>
<trkpt lat="50.691187" lon="5.120850"><time>2026-05-02T22:14:46Z</time></trkpt>
</trkseg></trk>
<trk>
<name>lhatrLv573</name>
<cmt>s</cmt>
<desc>Trognée Chemin n°Lv573 </desc>
<link href="https://chemins.be/trognee/chemin/Lv573"/><trkseg>
<trkpt lat="50.691187" lon="5.120850"><time>2026-05-02T22:14:46Z</time></trkpt>
<trkpt lat="50.691608" lon="5.121866"><time>2026-05-02T22:24:46Z</time></trkpt>
<trkpt lat="50.692839" lon="5.126678"><time>2026-05-02T22:34:46Z</time></trkpt>
<trkpt lat="50.693559" lon="5.127650"><time>2026-05-02T22:44:46Z</time></trkpt>
</trkseg>
</trk>
<trk>
<name>lhatrp1</name>
<cmt>r</cmt>
<desc>Trognée Chemin particulier n°p1 </desc>
<link href="https://chemins.be/trognee/chemin/p1"/><trkseg>
<trkpt lat="50.687569" lon="5.122878"><time>2026-05-02T21:24:46Z</time></trkpt>
<trkpt lat="50.688624" lon="5.123315"><time>2026-05-02T21:34:46Z</time></trkpt>
</trkseg>
</trk>
</gpx>